This is the latest recevied weather packets stored in our database for station/object SP1BMW-13. If no packets are shown the sender has not sent any weather packets the latest 10 day(s).
| Time | Temp. | Humidity | Pressure | Rain* | Wind** | Luminosity | Snow |
|---|---|---|---|---|---|---|---|
| 1777138965 | 11.11° C | 60% | 1009.3 hPa | 0 mm | 4.47 m/s, 258° | 22 W/m² | - |
| 1777138908 | 11.11° C | 60% | 1009.3 hPa | 0 mm | 4.02 m/s, 255° | 22 W/m² | - |
| 1777138845 | 11.11° C | 60% | 1009.1 hPa | 0 mm | 4.47 m/s, 283° | 24 W/m² | - |
| 1777138785 | 11.11° C | 60% | 1009.1 hPa | 0 mm | 1.79 m/s, 293° | 23 W/m² | - |
| 1777138725 | 11.11° C | 60% | 1009.3 hPa | 0 mm | 2.68 m/s, 278° | 23 W/m² | - |
| 1777138665 | 11.11° C | 59% | 1009.3 hPa | 0 mm | 3.58 m/s, 298° | 25 W/m² | - |
| 1777138608 | 11.11° C | 59% | 1009.1 hPa | 0 mm | 1.79 m/s, 225° | 29 W/m² | - |
| 1777138545 | 11.11° C | 59% | 1009.1 hPa | 0 mm | 1.79 m/s, 257° | 31 W/m² | - |
| 1777138485 | 11.11° C | 59% | 1009.1 hPa | 0 mm | 3.13 m/s, 299° | 33 W/m² | - |
| 1777138428 | 11.11° C | 60% | 1009.1 hPa | 0 mm | 2.68 m/s, 235° | 35 W/m² | - |
| 1777138365 | 11.11° C | 60% | 1009.1 hPa | 0 mm | 2.68 m/s, 203° | 37 W/m² | - |
| 1777138305 | 11.11° C | 59% | 1009.1 hPa | 0 mm | 2.68 m/s, 309° | 40 W/m² | - |
| 1777138245 | 11.11° C | 59% | 1009.1 hPa | 0 mm | 1.79 m/s, 245° | 39 W/m² | - |
| 1777138185 | 11.11° C | 60% | 1009.1 hPa | 0 mm | 1.34 m/s, 333° | 37 W/m² | - |
| 1777138125 | 11.11° C | 59% | 1009.4 hPa | 0 mm | 5.36 m/s, 306° | 37 W/m² | - |
| 1777138065 | 11.11° C | 60% | 1009.1 hPa | 0 mm | 3.13 m/s, 295° | 35 W/m² | - |
| 1777138005 | 11.11° C | 59% | 1009.1 hPa | 0 mm | 1.79 m/s, 304° | 36 W/m² | - |
| 1777137948 | 11.11° C | 59% | 1009.1 hPa | 0 mm | 2.24 m/s, 335° | 38 W/m² | - |
| 1777137885 | 11.11° C | 59% | 1009.1 hPa | 0 mm | 1.79 m/s, 300° | 40 W/m² | - |
| 1777137828 | 11.67° C | 59% | 1009.1 hPa | 0 mm | 1.79 m/s, 268° | 40 W/m² | - |
| 1777137765 | 11.67° C | 58% | 1009 hPa | 0 mm | 4.47 m/s, 306° | 39 W/m² | - |
| 1777137705 | 11.67° C | 58% | 1009.1 hPa | 0 mm | 1.79 m/s, 279° | 38 W/m² | - |
| 1777137645 | 11.67° C | 58% | 1008.9 hPa | 0 mm | 2.24 m/s, 290° | 38 W/m² | - |
| 1777137585 | 11.67° C | 58% | 1009 hPa | 0 mm | 3.58 m/s, 267° | 42 W/m² | - |
| 1777137525 | 11.67° C | 59% | 1009.2 hPa | 0 mm | 0.89 m/s, 292° | 46 W/m² | - |
* Rain latest hour (hover to see other rain measurements)
** Current wind speed in m/s (hover to see current wind gust speed)